Location: Sungai Kamana Besar
(2.6333°N, 113.4333°E)
Time: 04:41:49
(UTC+00:00)

SL-08 R/B - Pass Details

Date: 29 May 2022
Orbit: 950 x 1018 km, 82.9° (Epoch: 26 June)

Event Time Altitude Azimuth Distance (km) Brightness Sun altitude
Rises 20:29:59 0° 353° (N) 3,663 7.7 -25.2°
Reaches altitude 10° 20:32:28 10° 351° (N) 2,727 7.0 -24.6°
Maximum altitude 20:38:42 73° 267° (W) 1,039 4.4 -23.2°
Drops below altitude 10° 20:45:04 10° 183° (S) 2,780 6.6 -21.7°
Enters shadow 20:45:07 10° 183° (S) 2,796 6.6 -21.7°
